Stündliche Wetter Abegondo

Heute, 17 Juni, Donnerstag

Zeit Temperatur Niederschläge Wind Luftdruck Luftfeuchtigkeit
00:00 +16°C° 0 mm 1 m/S 742 mmHg 98%
01:00 +16°C° 0 mm 1 m/S 741 mmHg 98%
02:00 +16°C° 0 mm 2 m/S 741 mmHg 98%
03:00 +16°C° 0.2 mm 2 m/S 741 mmHg 98%
04:00 +16°C° 0.2 mm 1 m/S 741 mmHg 98%
05:00 +16°C° 0.2 mm 1 m/S 741 mmHg 98%
06:00 +16°C° 0.9 mm 2 m/S 741 mmHg 98%
07:00 +17°C° 0.9 mm 2 m/S 741 mmHg 98%
08:00 +17°C° 0.9 mm 2 m/S 741 mmHg 97%
09:00 +17°C° 1.1 mm 2 m/S 741 mmHg 97%
10:00 +17°C° 1.1 mm 2 m/S 741 mmHg 97%
11:00 +17°C° 1.1 mm 3 m/S 741 mmHg 96%
12:00 +17°C° 2.4 mm 3 m/S 741 mmHg 97%
13:00 +17°C° 2.4 mm 4 m/S 741 mmHg 97%
14:00 +17°C° 2.4 mm 4 m/S 741 mmHg 97%
15:00 +15°C° 4.2 mm 5 m/S 741 mmHg 98%
16:00 +15°C° 4.2 mm 5 m/S 742 mmHg 98%
17:00 +14°C° 4.2 mm 5 m/S 742 mmHg 98%
18:00 +14°C° 1.9 mm 5 m/S 743 mmHg 98%
19:00 +14°C° 1.9 mm 5 m/S 743 mmHg 98%
20:00 +13°C° 1.9 mm 5 m/S 744 mmHg 98%
21:00 +13°C° 0.4 mm 4 m/S 744 mmHg 98%
22:00 +13°C° 0.4 mm 4 m/S 744 mmHg 98%
23:00 +13°C° 0.4 mm 4 m/S 744 mmHg 98%

Morgen, 18 Juni, Freitag

Zeit Temperatur Niederschläge Wind Luftdruck Luftfeuchtigkeit
00:00 +13°C° 0.1 mm 4 m/S 744 mmHg 98%
01:00 +13°C° 0.1 mm 4 m/S 744 mmHg 98%
02:00 +13°C° 0.1 mm 4 m/S 744 mmHg 97%
03:00 +13°C° 0.4 mm 4 m/S 744 mmHg 98%
04:00 +13°C° 0.4 mm 4 m/S 744 mmHg 98%
05:00 +13°C° 0.4 mm 4 m/S 744 mmHg 98%
06:00 +13°C° 0.2 mm 4 m/S 744 mmHg 97%
07:00 +13°C° 0.2 mm 4 m/S 744 mmHg 97%
08:00 +14°C° 0.2 mm 4 m/S 744 mmHg 97%
09:00 +14°C° 0.8 mm 4 m/S 744 mmHg 97%
10:00 +14°C° 0.8 mm 4 m/S 745 mmHg 98%
11:00 +14°C° 0.8 mm 3 m/S 745 mmHg 98%
12:00 +14°C° 0.3 mm 3 m/S 745 mmHg 97%
13:00 +14°C° 0.3 mm 4 m/S 744 mmHg 97%
14:00 +15°C° 0.3 mm 4 m/S 744 mmHg 96%
15:00 +14°C° 0.1 mm 3 m/S 744 mmHg 96%
16:00 +14°C° 0.1 mm 3 m/S 744 mmHg 97%
17:00 +14°C° 0.1 mm 3 m/S 745 mmHg 97%
18:00 +14°C° 0.1 mm 3 m/S 745 mmHg 97%
19:00 +14°C° 0.1 mm 3 m/S 745 mmHg 97%
20:00 +14°C° 0.1 mm 3 m/S 745 mmHg 98%
21:00 +15°C° 0.1 mm 2 m/S 745 mmHg 98%
22:00 +15°C° 0.1 mm 2 m/S 745 mmHg 98%
23:00 +15°C° 0.1 mm 2 m/S 745 mmHg 98%

übermorgen, 19 Juni, Samstag

Zeit Temperatur Niederschläge Wind Luftdruck Luftfeuchtigkeit
00:00 +15°C° 0.4 mm 2 m/S 744 mmHg 98%
01:00 +15°C° 0.4 mm 2 m/S 744 mmHg 98%
02:00 +15°C° 0.4 mm 2 m/S 744 mmHg 99%
03:00 +15°C° 0.2 mm 2 m/S 744 mmHg 99%
04:00 +15°C° 0.2 mm 2 m/S 744 mmHg 99%
05:00 +15°C° 0.2 mm 1 m/S 744 mmHg 99%
06:00 +15°C° 0 mm 1 m/S 743 mmHg 98%
07:00 +16°C° 0 mm 1 m/S 743 mmHg 97%
08:00 +16°C° 0 mm 1 m/S 743 mmHg 96%
09:00 +16°C° 0.2 mm 1 m/S 743 mmHg 94%
10:00 +18°C° 0.2 mm 1 m/S 743 mmHg 92%
11:00 +18°C° 0.2 mm 1 m/S 743 mmHg 90%
12:00 +19°C° 0.2 mm 1 m/S 743 mmHg 88%
13:00 +19°C° 0.2 mm 1 m/S 742 mmHg 86%
14:00 +19°C° 0.2 mm 1 m/S 742 mmHg 85%
15:00 +18°C° 0.2 mm 2 m/S 742 mmHg 86%
16:00 +17°C° 0.2 mm 2 m/S 742 mmHg 88%
17:00 +17°C° 0.2 mm 2 m/S 741 mmHg 90%
18:00 +16°C° 0.1 mm 3 m/S 741 mmHg 91%
19:00 +14°C° 0.1 mm 3 m/S 741 mmHg 92%
20:00 +13°C° 0.1 mm 4 m/S 741 mmHg 94%
21:00 +12°C° 0.5 mm 4 m/S 741 mmHg 95%
22:00 +12°C° 0.5 mm 4 m/S 740 mmHg 96%
23:00 +12°C° 0.5 mm 5 m/S 740 mmHg 97%

20 Juni, Sonntag

Zeit Temperatur Niederschläge Wind Luftdruck Luftfeuchtigkeit
00:00 +12°C° 1.3 mm 4 m/S 740 mmHg 97%
01:00 +12°C° 1.3 mm 4 m/S 739 mmHg 97%
02:00 +12°C° 1.3 mm 3 m/S 739 mmHg 97%
03:00 +13°C° 0.3 mm 3 m/S 739 mmHg 98%
04:00 +13°C° 0.3 mm 3 m/S 739 mmHg 98%
05:00 +13°C° 0.3 mm 3 m/S 740 mmHg 98%
06:00 +14°C° 0.2 mm 4 m/S 740 mmHg 94%
07:00 +14°C° 0.2 mm 4 m/S 740 mmHg 90%
08:00 +15°C° 0.2 mm 5 m/S 740 mmHg 86%
09:00 +16°C° 0.1 mm 5 m/S 740 mmHg 77%
10:00 +17°C° 0.1 mm 5 m/S 740 mmHg 69%
11:00 +19°C° 0.1 mm 6 m/S 740 mmHg 60%
12:00 +19°C° 0.1 mm 6 m/S 740 mmHg 62%
13:00 +19°C° 0.1 mm 6 m/S 740 mmHg 64%
14:00 +17°C° 0.1 mm 6 m/S 740 mmHg 66%
15:00 +16°C° 0.2 mm 5 m/S 740 mmHg 72%
16:00 +16°C° 0.2 mm 5 m/S 740 mmHg 78%
17:00 +15°C° 0.2 mm 5 m/S 740 mmHg 83%
18:00 +14°C° 0.1 mm 5 m/S 741 mmHg 86%
19:00 +14°C° 0.1 mm 5 m/S 741 mmHg 88%
20:00 +13°C° 0.1 mm 4 m/S 741 mmHg 91%
21:00 +13°C° 0.1 mm 4 m/S 741 mmHg 91%
22:00 +13°C° 0.1 mm 4 m/S 741 mmHg 91%
23:00 +13°C° 0.1 mm 4 m/S 741 mmHg 92%

21 Juni, Montag

Zeit Temperatur Niederschläge Wind Luftdruck Luftfeuchtigkeit
00:00 +13°C° 0.2 mm 4 m/S 741 mmHg 93%
01:00 +13°C° 0.2 mm 3 m/S 741 mmHg 95%
02:00 +13°C° 0.2 mm 3 m/S 741 mmHg 96%
03:00 +13°C° 0.3 mm 3 m/S 742 mmHg 96%
04:00 +14°C° 0.3 mm 2 m/S 742 mmHg 97%
05:00 +14°C° 0.3 mm 2 m/S 742 mmHg 97%
06:00 +14°C° 0.4 mm 2 m/S 743 mmHg 96%
07:00 +14°C° 0.4 mm 3 m/S 743 mmHg 95%
08:00 +14°C° 0.4 mm 3 m/S 744 mmHg 93%
09:00 +16°C° 0.5 mm 3 m/S 744 mmHg 91%
10:00 +16°C° 0.5 mm 3 m/S 745 mmHg 89%
11:00 +17°C° 0.5 mm 3 m/S 745 mmHg 87%
12:00 +17°C° 0.6 mm 3 m/S 745 mmHg 86%
13:00 +17°C° 0.6 mm 3 m/S 746 mmHg 85%
14:00 +17°C° 0.6 mm 4 m/S 746 mmHg 85%
15:00 +16°C° 0.1 mm 3 m/S 746 mmHg 80%
16:00 +16°C° 0.1 mm 3 m/S 747 mmHg 75%
17:00 +16°C° 0.1 mm 3 m/S 747 mmHg 70%
18:00 +14°C° 0.2 mm 3 m/S 748 mmHg 79%
19:00 +14°C° 0.2 mm 2 m/S 748 mmHg 88%
20:00 +13°C° 0.2 mm 2 m/S 749 mmHg 97%
21:00 +13°C° 0.2 mm 2 m/S 749 mmHg 97%
22:00 +13°C° 0.2 mm 2 m/S 749 mmHg 97%
23:00 +14°C° 0.2 mm 2 m/S 749 mmHg 97%

22 Juni, Dienstag

Zeit Temperatur Niederschläge Wind Luftdruck Luftfeuchtigkeit
00:00 +13°C° 0.2 mm 2 m/S 749 mmHg 97%
01:00 +13°C° 0.2 mm 2 m/S 749 mmHg 97%
02:00 +13°C° 0.2 mm 2 m/S 750 mmHg 97%
03:00 +13°C° 0.1 mm 2 m/S 750 mmHg 96%
04:00 +13°C° 0.1 mm 2 m/S 750 mmHg 96%
05:00 +13°C° 0.1 mm 2 m/S 750 mmHg 95%
06:00 +14°C° 0 mm 2 m/S 751 mmHg 87%
07:00 +15°C° 0 mm 2 m/S 751 mmHg 79%
08:00 +16°C° 0 mm 2 m/S 751 mmHg 71%
09:00 +17°C° 0 mm 2 m/S 751 mmHg 64%
10:00 +18°C° 0 mm 2 m/S 751 mmHg 56%
11:00 +20°C° 0 mm 3 m/S 751 mmHg 49%
12:00 +20°C° 0 mm 3 m/S 751 mmHg 49%
13:00 +20°C° 0 mm 3 m/S 751 mmHg 48%
14:00 +20°C° 0 mm 3 m/S 751 mmHg 48%
15:00 +19°C° 0 mm 3 m/S 751 mmHg 52%
16:00 +18°C° 0 mm 3 m/S 751 mmHg 57%
17:00 +18°C° 0 mm 3 m/S 751 mmHg 62%
18:00 +16°C° 0 mm 3 m/S 752 mmHg 70%
19:00 +13°C° 0 mm 3 m/S 752 mmHg 79%
20:00 +12°C° 0 mm 2 m/S 752 mmHg 87%
21:00 +12°C° 0 mm 2 m/S 752 mmHg 90%
22:00 +10°C° 0 mm 2 m/S 752 mmHg 93%
23:00 +10°C° 0 mm 2 m/S 752 mmHg 96%
Mehr zeigen

Wir brauchen deine Erlaubnis

Meteoprog und unser Service Anbieter werden persönliche Daten aufbewahren, so wie Cookies, Geräte Bezeichnung oder ähnliche Technologien von deinem Gerät und Prozess, so wie Persönliche Daten Inhalte und Werbungen, genauso wie social Media und den Verkehr zu analysieren.

  • Aufbewahrung und/oder Zugang zu deiner Geräte Informationen.

    Cookies, Geräte Bezeichnung oder andere Informationen, können aufbewahrt oder Zugang zu deinem Gerät erhalten, für den Grund, der oben angegeben wird.

  • Personalisierte Werbung und Inhalte, Messungen, Einblick in das Publikum und Produkt Entwicklung.

    Werbungen und Inhalte können personalisiert werden, basierend auf ein Profil. Mehr Daten können besser personalisierte Werbungen und Inhalte hinzufügen. Werbung und Inhalte können gezeigt und gemessen werden. Einblicke über das Publikum, welche die Werbung gesehen haben und den Inhalt, können abgeleitet werden. So wie Daten können genutzt werden, um es zu verbessern oder die Benutzer Erfahrung zu verbessern das System und die Software.

Wenn du “Ich stimme zu” klickst, erlaubst du uns, die Cookies zu benutzen die Geräte Bezeichnung, den Web oder ähnliche Technologien zu benutzen. Deine Settings, können in deinem Gerät bei deinem Browser geändert werden.

Für den bestimmten Zweck, berechtigten Interessen beruhen darauf, mehr als auf den Inhalt. Du kannst mehr darüber in unseren Privaten und Cookie Politik lesen.